Regional Weather Roundup
Issued by NWS Binghamton, NY

Current Version | Previous Version | Text Only | Print | Product List | Glossary On
Versions: 1 2 3 4 5 6 7 8 9 10 11 12 13 14 15 16 17 18 19 20 21 22 23 24 25 26 27 28
000
ASUS41 KBGM 301510
RWRBGM
RWRBGM
BINGHAMTON REGIONAL WEATHER ROUNDUP
NATIONAL WEATHER SERVICE BINGHAMTON NY
1100 AM EDT THU OCT 30 2014

Note: "fair" indicates few or no clouds below 12,000 feet with no
significant weather and/or obstructions to visibility.

* = Station(s) that does not report precipitation, such as rain,
snow, etc, also no thunder or fog.

!NYZ009-015>018-022>025-036-037-044>046-055>057-062-301600
...CENTRAL NEW YORK...

CITY           SKY/WX    TMP DP  RH WIND       PRES   REMARKS
BINGHAMTON     CLOUDY    43  35  73 NW8       30.01R
CORTLAND       CLOUDY    43  41  93 W6        30.04S
DANSVILLE      CLOUDY    45  36  70 NW8       30.07S
ELMIRA         NOT AVBL
ITHACA         PTSUNNY   45  37  73 NW9       30.05R
HAMILTON       CLOUDY    45  39  81 NW5       30.01S
MONTICELLO     CLOUDY    45  36  70 NW12      30.01S
NORWICH        RAIN      43  37  81 NW6       30.02S
ONEONTA        CLOUDY    41  36  81 W8        29.99S HAZE
PENN YAN       CLOUDY    45  34  65 NW8       30.05S
ROME           LGT RAIN  45  40  82 W9        30.03S
SIDNEY         CLOUDY    46  41  81 NW7       30.02S
SYRACUSE       CLOUDY    47  42  83 W9        30.03S
$$

!PAZ038>040-043-044-047-048-072-301600
...NORTHEAST PENNSYLVANIA...

CITY           SKY/WX    TMP DP  RH WIND       PRES   REMARKS
HAZLETON       CLOUDY    46  36  66 NW5       30.04F
SCRANTON       CLOUDY    48  34  58 NW13      30.03S
TOWANDA*       CLOUDY    46  34  61 NW6       30.07R
$$
&&
KEY
WCI = WIND CHILL INDEX
VSB = VISIBILITY
HX  = HEAT INDEX
$$



USA.gov is the U.S. government's official web portal to all federal, state and local government web resources and services.